Weather History for Seattle, WA

Change the Weather History Date:

Saturday, October 28, 2006

  Actual Average Record
Temperature  
Mean Temperature 51 °F 50 °F  
Max Temperature 57 °F 56 °F 66 °F (1962)
Min Temperature 45 °F 44 °F 30 °F (1971)
Degree Days  
Heating Degree Days 14 15  
Month to date heating degree days 317 331  
Since 1 July heating degree days 491 548  
Cooling Degree Days 0 0  
Month to date cooling degree days 0 0  
Year to date cooling degree days 270 189  
Moisture  
Dew Point 46 °F    
Average Humidity 86    
Maximum Humidity 100    
Minimum Humidity 71    
Precipitation  
Precipitation 0.00 in 0.16 in 1.53 in (1982)
Month to date precipitation 1.00 2.98  
Year to date precipitation 24.94 25.07  
Snow  
Snow 0.00 in - - ()
Month to date snowfall  
Since 1 July snowfall  
Snow Depth -    
Sea Level Pressure  
Sea Level Pressure 30.21 in    
Wind  
Wind Speed 4 mph (SSW)    
Max Wind Speed 18 mph    
Max Gust Speed 22 mph    
Visibility 4 miles    
Events Fog    
T = Trace of Precipitation, MM = Missing Value Source: NWS Daily Summary

Daily Weather History Graph

Daily Weather History Graph

Search for Another Location

Airport:

Trip Planner

Search our weather history database for the weather conditions in past years. The results will help you decide how hot, cold, wet, or windy it might be!

Date:

Astronomy

Oct. 28, 2006 Rise Set
Actual Time 7:47 AM PDT 5:58 PM PDT
Civil Twilight 7:15 AM PDT 6:30 PM PDT
Nautical Twilight 6:39 AM PDT 7:06 PM PDT
Astronomical Twilight 6:03 AM PDT 7:41 PM PDT
Moon 2:32 PM PDT (10/28) 10:38 PM PDT (10/28)
Length of Visible Light 11h 14m
Length of Day
10h 11m
Waxing Crescent, 38% of the Moon is Illuminated
Oct 28
Waxing Crescent
Oct 29
First Quarter
Nov 5
Full
Nov 12
Last Quarter
Nov 20
New

Hourly Weather History & Observations

Time (PDT) Temp. Windchill Dew Point Humidity Pressure Visibility Wind Dir Wind Speed Gust Speed Precip Events Conditions
12:53 AM 48.0 °F - 46.0 °F 93% 30.35 in 10.0 mi SSE 6.9 mph - N/A   Clear
1:53 AM 46.9 °F - 45.0 °F 93% 30.34 in 10.0 mi SSE 3.5 mph - N/A   Scattered Clouds
2:08 AM 46.4 °F - 44.6 °F 93% 30.31 in 1.0 mi Calm Calm - N/A   Mostly Cloudy
2:48 AM 46.4 °F 44.3 °F 44.6 °F 93% 30.31 in 6.0 mi South 4.6 mph - N/A   Mostly Cloudy
2:53 AM 46.0 °F 43.9 °F 45.0 °F 96% 30.33 in 5.0 mi South 4.6 mph - N/A   Mostly Cloudy
3:03 AM 46.4 °F - 46.4 °F 100% 30.31 in 1.8 mi Calm Calm - N/A   Mostly Cloudy
3:06 AM 46.4 °F - 46.4 °F 100% 30.31 in 0.8 mi Calm Calm - N/A   Overcast
3:32 AM 48.2 °F - 48.2 °F 100% 30.30 in 0.2 mi SSW 3.5 mph - N/A Fog Fog
3:53 AM 48.9 °F - 48.0 °F 97% 30.32 in 0.2 mi Calm Calm - N/A Fog Fog
4:53 AM 48.0 °F - 48.0 °F 100% 30.30 in 0.2 mi Calm Calm - N/A Fog Fog
5:53 AM 48.0 °F - 46.9 °F 96% 30.30 in 0.2 mi Calm Calm - N/A Fog Fog
6:11 AM 48.2 °F - 48.2 °F 100% 30.28 in 0.2 mi Calm Calm - N/A Fog Fog
6:41 AM 48.2 °F - 48.2 °F 100% 30.28 in 0.2 mi WSW 3.5 mph - N/A Fog Fog
6:53 AM 48.0 °F - 48.0 °F 100% 30.30 in 0.2 mi Calm Calm - N/A Fog Fog
7:44 AM 46.4 °F 45.2 °F 46.4 °F 100% 30.27 in 0.2 mi SSE 3.5 mph - N/A Fog Fog
7:53 AM 46.9 °F - 46.0 °F 97% 30.29 in 1.0 mi Calm Calm - N/A   Overcast
7:57 AM 46.4 °F 44.3 °F 46.4 °F 100% 30.27 in 1.5 mi SSE 4.6 mph - N/A   Overcast
8:11 AM 46.4 °F 44.3 °F 44.6 °F 93% 30.26 in 2.0 mi South 4.6 mph - N/A   Mostly Cloudy
8:41 AM 46.4 °F 43.5 °F 44.6 °F 93% 30.26 in 2.0 mi South 5.8 mph - N/A   Mostly Cloudy
8:53 AM 46.0 °F 43.1 °F 45.0 °F 96% 30.28 in 3.0 mi South 5.8 mph - N/A   Mostly Cloudy
9:42 AM 48.2 °F - 46.4 °F 93% 30.26 in 5.0 mi SW 3.5 mph - N/A   Mostly Cloudy
9:53 AM 46.9 °F - 46.0 °F 97% 30.28 in 5.0 mi SW 4.6 mph - N/A   Mostly Cloudy
10:09 AM 46.4 °F 44.3 °F 46.4 °F 100% 30.26 in 2.0 mi SSW 4.6 mph - N/A   Mostly Cloudy
10:18 AM 46.4 °F 44.3 °F 44.6 °F 93% 30.26 in 1.0 mi SW 4.6 mph - N/A   Mostly Cloudy
10:22 AM 46.4 °F 44.3 °F 46.4 °F 100% 30.26 in 0.8 mi SW 4.6 mph - N/A   Mostly Cloudy
10:26 AM 46.4 °F 44.3 °F 46.4 °F 100% 30.25 in 0.2 mi SW 4.6 mph - N/A   Mostly Cloudy
10:53 AM 46.0 °F - 45.0 °F 96% 30.27 in 0.2 mi Calm Calm - N/A Fog Fog
11:21 AM 48.2 °F - 46.4 °F 93% 30.24 in 2.0 mi Calm Calm - N/A   Scattered Clouds
11:42 AM 50.0 °F - 46.4 °F 87% 30.24 in 7.0 mi Calm Calm - N/A   Partly Cloudy
11:53 AM 50.0 °F - 46.0 °F 86% 30.26 in 7.0 mi SSW 4.6 mph - N/A   Partly Cloudy
12:53 PM 53.1 °F - 45.0 °F 74% 30.24 in 10.0 mi SW 3.5 mph - N/A   Partly Cloudy
1:53 PM 55.0 °F - 46.0 °F 72% 30.22 in 10.0 mi West 5.8 mph - N/A   Partly Cloudy
2:53 PM 55.9 °F - 46.9 °F 72% 30.19 in 10.0 mi WNW 5.8 mph - N/A   Partly Cloudy
3:53 PM 55.9 °F - 48.0 °F 75% 30.16 in 10.0 mi WNW 5.8 mph - N/A   Clear
4:53 PM 54.0 °F - 48.0 °F 80% 30.15 in 10.0 mi West 6.9 mph - N/A   Clear
5:53 PM 50.0 °F - 46.9 °F 89% 30.14 in 8.0 mi Calm Calm - N/A   Partly Cloudy
6:53 PM 48.0 °F - 46.9 °F 96% 30.13 in 8.0 mi SW 4.6 mph - N/A   Scattered Clouds
6:59 PM 48.2 °F - 46.4 °F 93% 30.10 in 5.0 mi WSW 3.5 mph - N/A   Scattered Clouds
7:04 PM 48.2 °F - 46.4 °F 93% 30.10 in 2.5 mi WSW 3.5 mph - N/A   Scattered Clouds
7:12 PM 48.2 °F - 46.4 °F 93% 30.10 in 1.5 mi SW 3.5 mph - N/A   Mostly Cloudy
7:17 PM 48.2 °F - 46.4 °F 93% 30.10 in 0.8 mi SW 3.5 mph - N/A   Mostly Cloudy
7:38 PM 48.2 °F - 46.4 °F 93% 30.09 in 0.8 mi South 4.6 mph - N/A   Mostly Cloudy
7:48 PM 48.2 °F - 46.4 °F 93% 30.09 in 1.5 mi South 3.5 mph - N/A   Mostly Cloudy
7:53 PM 48.0 °F - 46.9 °F 96% 30.12 in 1.5 mi South 5.8 mph - N/A   Mostly Cloudy
8:04 PM 48.2 °F - 46.4 °F 93% 30.09 in 2.5 mi South 5.8 mph - N/A   Mostly Cloudy
8:18 PM 46.4 °F 43.5 °F 46.4 °F 100% 30.09 in 1.5 mi South 5.8 mph - N/A   Mostly Cloudy
8:22 PM 46.4 °F 43.5 °F 46.4 °F 100% 30.09 in 0.2 mi South 5.8 mph - N/A Fog Fog
8:37 PM 46.4 °F 43.5 °F 46.4 °F 100% 30.08 in 0.2 mi South 5.8 mph - N/A Fog Fog
8:51 PM 46.4 °F 43.5 °F 46.4 °F 100% 30.08 in 1.0 mi South 5.8 mph - N/A   Overcast
8:53 PM 46.9 °F - 46.0 °F 97% 30.10 in 2.0 mi South 5.8 mph - N/A   Mostly Cloudy
9:06 PM 46.4 °F 43.5 °F 46.4 °F 100% 30.07 in 2.0 mi SSE 5.8 mph - N/A   Mostly Cloudy
9:19 PM 46.4 °F 42.9 °F 46.4 °F 100% 30.07 in 3.0 mi SSE 6.9 mph - N/A   Mostly Cloudy
9:53 PM 46.9 °F - 46.0 °F 97% 30.08 in 7.0 mi South 6.9 mph - N/A   Mostly Cloudy
10:53 PM 48.9 °F - 46.9 °F 93% 30.07 in 8.0 mi SSE 5.8 mph - N/A   Overcast
11:53 PM 48.9 °F - 46.0 °F 90% 30.03 in 9.0 mi South 11.5 mph - N/A   Partly Cloudy